Location: Newark
(42.8481°N, 0.4872°E)
Time: 08:58:06
(UTC+00:00)

Vanguard 1 - Pass Details

Date: 30 October 2020
Orbit: 650 x 3833 km, 34.2° (Epoch: 26 November)

Event Time Altitude Azimuth Distance (km) Brightness Sun altitude
Rises 17:05:19 0° 279° (W) 7,971 16.1 -3.1°
Reaches altitude 10° 17:11:15 10° 275° (W) 6,835 15.8 -4.1°
Maximum altitude 17:31:10 48° 210° (SSW) 3,477 13.2 -7.6°
Drops below altitude 10° 17:43:34 10° 141° (SE) 4,403 13.1 -9.9°
Sets 17:46:29 0° 135° (SE) 5,050 13.4 -10.4°
